FW7308 Weather Reports


time (UTC)temp
C
wind
direction
speed
KPH
gust
KPH
rain 1hr
cm
rain 24hr
cm
rain mn
cm
humidity
%
barometer
mb
20260508025141 3 332 1.6 1.6 0.00 0.00 0.00 79 1010.5
20260508024640 3 327 3.2 3.2 0.00 0.00 0.00 80 1010.9
20260508024141 3 327 3.2 3.2 0.00 0.00 0.00 78 1010.9
20260508023640 3 335 3.2 3.2 0.00 0.00 0.00 78 1010.7
20260508023140 3 326 3.2 3.2 0.00 0.00 0.00 78 1010.9
20260508022639 3 328 3.2 3.2 0.00 0.00 0.00 77 1010.9
20260508022140 3 327 3.2 3.2 0.00 0.00 0.00 78 1010.7
20260508021639 3 324 3.2 3.2 0.00 0.00 0.00 77 1010.9
20260508021139 3 324 3.2 3.2 0.00 0.00 0.00 78 1010.9
20260508020637 4 325 3.2 3.2 0.00 0.00 0.00 75 1010.9
20260508020137 4 329 3.2 3.2 0.00 0.00 0.00 75 1010.5
20260508015639 4 324 3.2 3.2 0.00 0.00 0.00 76 1010.5
20260508014636 4 334 3.2 4.8 0.00 0.00 0.00 75 1010.3
20260508014236 4 329 3.2 3.2 0.00 0.00 0.00 75 1010.5
20260508013638 4 327 3.2 3.2 0.00 0.00 0.00 76 1010.5
20260508013137 4 327 3.2 3.2 0.00 0.00 0.00 76 1010.1
20260508012235 5 325 3.2 3.2 0.00 0.00 0.00 75 1010.1
20260508011736 5 324 1.6 3.2 0.00 0.00 0.00 73 1010.0
20260508011135 5 325 1.6 1.6 0.00 0.00 0.00 72 1009.8
20260508010133 5 328 1.6 1.6 0.00 0.00 0.00 71 1009.8
20260508005634 5 328 1.6 1.6 0.00 0.00 0.00 69 1009.8
20260508005133 6 334 1.6 1.6 0.00 0.00 0.00 67 1009.8
20260508004632 6 336 1.6 1.6 0.00 0.00 0.00 69 1009.6
20260508004131 6 327 1.6 1.6 0.00 0.00 0.00 66 1009.4
20260508003633 6 328 1.6 1.6 0.00 0.00 0.00 66 1009.4
20260508003132 7 0.0 0.0 0.00 0.00 0.00 60 1009.8
20260508002633 7 0.0 0.0 0.00 0.00 0.00 61 1009.4
20260508002132 7 338 1.6 1.6 0.00 0.00 0.00 59 1009.4
20260508001631 8 332 0.0 1.6 0.00 0.00 0.00 55 1009.4
20260508001131 8 336 0.0 1.6 0.00 0.00 0.00 55 1009.1
20260508000630 8 0.0 0.0 0.00 0.00 0.00 53 1009.4
20260507235631 9 324 3.2 3.2 0.00 0.00 0.00 51 1009.1
20260507235129 9 326 1.6 3.2 0.00 0.00 0.00 50 1009.1
20260507234628 9 336 1.6 1.6 0.00 0.00 0.00 49 1009.1
20260507234128 9 282 4.8 8.0 0.00 0.00 0.00 49 1009.1
20260507233629 10 352 4.8 9.7 0.00 0.00 0.00 49 1009.1
20260507233130 10 317 4.8 8.0 0.00 0.00 0.00 47 1009.1
20260507232627 10 333 3.2 3.2 0.00 0.00 0.00 49 1009.1
20260507232227 10 335 3.2 8.0 0.00 0.00 0.00 47 1008.7
20260507231625 10 346 6.4 11.3 0.00 0.00 0.00 47 1008.9
20260507231126 10 303 4.8 9.7 0.00 0.00 0.00 47 1008.7
20260507230626 10 350 6.4 8.0 0.00 0.00 0.00 47 1008.7
20260507220121 12 287 9.7 14.5 0.00 0.00 0.00 43 1008.7
20260507215622 11 323 4.8 9.7 0.00 0.00 0.00 43 1008.4
20260507215122 12 296 6.4 9.7 0.00 0.00 0.00 44 1008.7
20260507214621 12 340 4.8 14.5 0.00 0.00 0.00 44 1008.7
20260507214122 12 327 9.7 12.9 0.00 0.00 0.00 44 1008.7
20260507213619 12 309 4.8 8.0 0.00 0.00 0.00 43 1008.7
20260507213120 12 309 6.4 9.7 0.00 0.00 0.00 43 1008.7
20260507212619 11 336 8.0 12.9 0.00 0.00 0.00 43 1008.7
20260507212118 12 320 11.3 14.5 0.00 0.00 0.00 42 1008.7
20260507211617 12 318 4.8 9.7 0.00 0.00 0.00 44 1008.7
20260507211119 12 41 8.0 11.3 0.00 0.00 0.00 43 1008.7
20260507210618 12 343 4.8 8.0 0.00 0.00 0.00 43 1008.7
20260507210117 12 321 6.4 9.7 0.00 0.00 0.00 44 1008.7
20260507205118 13 92 4.8 12.9 0.00 0.00 0.00 44 1008.4
20260507204617 13 329 4.8 11.3 0.00 0.00 0.00 44 1008.7
20260507204146 12 349 8.0 11.3 0.00 0.00 0.00 43 1008.7
20260507203645 13 29 3.2 8.0 0.00 0.00 0.00 44 1008.7
20260507203144 13 311 6.4 9.7 0.00 0.00 0.00 43 1008.4
20260507202647 13 287 8.0 11.3 0.00 0.00 0.00 41 1008.6
20260507202145 13 356 11.3 14.5 0.00 0.00 0.00 42 1008.7
20260507201647 12 302 9.7 16.1 0.00 0.00 0.00 44 1008.6
20260507201145 12 328 4.8 4.8 0.00 0.00 0.00 44 1008.7
20260507200644 12 349 6.4 12.9 0.00 0.00 0.00 45 1008.7
20260507200143 11 14 9.7 22.5 0.00 0.00 0.00 46 1008.7
20260507195642 12 301 11.3 16.1 0.00 0.00 0.00 42 1008.6
20260507195142 13 286 9.7 12.9 0.00 0.00 0.00 42 1008.7
20260507194643 12 16 4.8 9.7 0.00 0.00 0.00 43 1008.7
20260507194142 12 324 8.0 14.5 0.00 0.00 0.00 44 1008.7
20260507193142 12 288 12.9 20.9 0.00 0.00 0.00 44 1008.7
20260507192642 11 358 6.4 11.3 0.00 0.00 0.00 46 1008.7
20260507192141 11 348 4.8 9.7 0.00 0.00 0.00 45 1008.7
20260507191640 12 298 8.0 9.7 0.00 0.00 0.00 44 1008.7
20260507191139 12 291 11.3 17.7 0.00 0.00 0.00 43 1008.9
20260507190641 13 359 3.2 8.0 0.00 0.00 0.00 44 1009.1
20260507185639 13 277 4.8 9.7 0.00 0.00 0.00 44 1009.1
20260507185138 13 341 6.4 12.9 0.00 0.00 0.00 46 1009.1
20260507184639 12 343 8.0 12.9 0.00 0.00 0.00 42 1009.1
20260507184138 12 320 6.4 9.7 0.00 0.00 0.00 43 1009.1
20260507183637 13 332 8.0 12.9 0.00 0.00 0.00 42 1009.3
20260507183137 13 325 8.0 20.9 0.00 0.00 0.00 44 1009.4
20260507182638 12 358 8.0 12.9 0.00 0.00 0.00 46 1009.4
20260507182137 12 350 11.3 14.5 0.00 0.00 0.00 45 1009.3
20260507181637 12 348 6.4 12.9 0.00 0.00 0.00 46 1009.6
20260507181135 12 19 8.0 11.3 0.00 0.00 0.00 44 1009.4
20260507180637 12 23 9.7 14.5 0.00 0.00 0.00 44 1009.6
20260507180136 12 9 6.4 14.5 0.00 0.00 0.00 46 1009.4
20260507175635 12 349 9.7 22.5 0.00 0.00 0.00 45 1009.4
20260507175134 12 281 9.7 16.1 0.00 0.00 0.00 46 1009.4
20260507174633 12 312 8.0 9.7 0.00 0.00 0.00 45 1009.4
20260507174134 12 349 11.3 16.1 0.00 0.00 0.00 45 1009.4
20260507173634 12 321 9.7 17.7 0.00 0.00 0.00 48 1009.4
20260507173133 12 297 9.7 12.9 0.00 0.00 0.00 47 1009.4
20260507172632 11 352 8.0 11.3 0.00 0.00 0.00 48 1009.4
20260507172133 11 307 8.0 16.1 0.00 0.00 0.00 50 1009.4
20260507171632 12 351 16.1 20.9 0.00 0.00 0.00 49 1009.4
20260507171132 12 16 8.0 12.9 0.00 0.00 0.00 48 1009.4
20260507170631 11 310 6.4 11.3 0.00 0.00 0.00 49 1009.4
20260507170132 12 311 8.0 16.1 0.00 0.00 0.00 50 1009.4
20260507165631 11 350 4.8 8.0 0.00 0.00 0.00 48 1009.8
20260507164630 12 334 4.8 11.3 0.00 0.00 0.00 51 1010.1
20260507164129 12 331 8.0 14.5 0.00 0.00 0.00 50 1009.8
20260507163129 11 314 8.0 12.9 0.00 0.00 0.00 52 1010.1
20260507162628 10 353 6.4 11.3 0.00 0.00 0.00 53 1010.1
20260507162234 10 348 6.4 8.0 0.00 0.00 0.00 51 1010.5
20260507161632 10 324 8.0 16.1 0.00 0.00 0.00 53 1010.1
20260507161130 11 314 11.3 17.7 0.00 0.00 0.00 51 1010.1
20260507160627 11 325 11.3 14.5 0.00 0.00 0.00 50 1010.1
20260507160126 11 332 8.0 12.9 0.00 0.00 0.00 50 1010.3
20260507155627 11 16 3.2 9.7 0.00 0.00 0.00 52 1010.5
20260507155127 11 348 4.8 9.7 0.00 0.00 0.00 50 1010.5
20260507154626 11 351 12.9 16.1 0.00 0.00 0.00 50 1010.5
20260507154125 11 328 12.9 17.7 0.00 0.00 0.00 49 1010.5
20260507153626 10 10 12.9 22.5 0.00 0.00 0.00 49 1010.5
20260507153125 11 334 6.4 11.3 0.00 0.00 0.00 48 1010.5
20260507152624 10 314 8.0 14.5 0.00 0.00 0.00 51 1010.9
20260507152124 10 295 6.4 11.3 0.00 0.00 0.00 51 1010.5
20260507151625 10 303 8.0 14.5 0.00 0.00 0.00 48 1010.5
20260507151125 11 46 6.4 11.3 0.00 0.00 0.00 51 1010.5
20260507150623 11 346 6.4 16.1 0.00 0.00 0.00 50 1010.5
20260507150123 10 14 9.7 17.7 0.00 0.00 0.00 51 1010.5
20260507145625 10 293 4.8 12.9 0.00 0.00 0.00 50 1010.5
20260507145123 10 341 11.3 24.1 0.00 0.00 0.00 50 1010.5
20260507144622 10 326 8.0 9.7 0.00 0.00 0.00 52 1010.5
20260507144121 10 327 16.1 24.1 0.00 0.00 0.00 51 1010.7
20260507143623 10 354 6.4 12.9 0.00 0.00 0.00 52 1010.5
20260507143222 10 288 6.4 9.7 0.00 0.00 0.00 54 1010.5
20260507142722 10 327 9.7 20.9 0.00 0.00 0.00 54 1010.5
20260507142121 10 1 8.0 12.9 0.00 0.00 0.00 53 1010.5
20260507141622 9 320 14.5 22.5 0.00 0.00 0.00 54 1010.5
20260507141122 10 309 12.9 16.1 0.00 0.00 0.00 54 1010.5
20260507140620 10 297 6.4 9.7 0.00 0.00 0.00 59 1010.5
20260507140119 9 323 12.9 20.9 0.00 0.00 0.00 56 1010.5
20260507135719 9 12 9.7 16.1 0.00 0.00 0.00 57 1010.1
20260507135117 10 11 9.7 20.9 0.00 0.00 0.00 60 1010.5
20260507134619 10 325 11.3 20.9 0.00 0.00 0.00 62 1010.5
20260507134118 9 294 4.8 8.0 0.00 0.00 0.00 61 1010.1
20260507133717 9 349 8.0 9.7 0.00 0.00 0.00 63 1010.3
20260507133118 9 341 3.2 4.8 0.00 0.00 0.00 63 1010.1
20260507132617 9 335 4.8 9.7 0.00 0.00 0.00 66 1010.1
20260507132118 8 326 8.0 12.9 0.00 0.00 0.00 67 1010.1
20260507131617 9 337 3.2 4.8 0.00 0.00 0.00 71 1010.3
20260507131147 8 336 6.4 8.0 0.00 0.00 0.00 72 1010.1
20260507130646 9 317 6.4 9.7 0.00 0.00 0.00 74 1010.1
20260507130145 9 17 11.3 16.1 0.00 0.00 0.00 76 1010.1
20260507125646 9 331 4.8 4.8 0.00 0.00 0.00 76 1010.1
20260507124645 8 358 3.2 8.0 0.00 0.00 0.00 79 1010.1
20260507124144 8 306 3.2 4.8 0.00 0.00 0.00 81 1010.1
20260507123643 8 312 6.4 9.7 0.00 0.00 0.00 81 1010.1
20260507123145 8 354 4.8 8.0 0.00 0.00 0.00 88 1010.1
20260507122644 7 350 1.6 3.2 0.00 0.00 0.00 90 1010.0
20260507122142 6 340 4.8 11.3 0.00 0.00 0.00 91 1010.1
20260507121642 7 310 4.8 11.3 0.00 0.00 0.00 93 1010.0
20260507121142 7 323 1.6 3.2 0.00 0.00 0.00 94 1009.8
20260507120642 7 303 3.2 8.0 0.00 0.00 0.00 94 1009.8
20260507115641 7 343 3.2 4.8 0.00 0.00 0.00 96 1009.8
20260507115243 7 0.0 0.0 0.00 0.00 0.00 96 1009.8
20260507114644 7 0.0 0.0 0.00 0.00 0.00 96 1009.8
20260507114141 7 344 1.6 1.6 0.00 0.00 0.00 94 1009.8
20260507113639 7 338 1.6 3.2 0.00 0.00 0.00 95 1009.8
20260507112639 7 331 1.6 3.2 0.00 0.00 0.00 94 1009.8
20260507112138 7 330 1.6 3.2 0.00 0.00 0.00 93 1009.8
20260507111638 7 331 0.0 1.6 0.00 0.00 0.00 93 1009.8
20260507111136 7 338 3.2 3.2 0.00 0.00 0.00 93 1009.8
20260507110638 7 336 1.6 3.2 0.00 0.00 0.00 92 1009.8
20260507110137 7 327 4.8 8.0 0.00 0.00 0.00 92 1009.8
20260507105636 7 303 4.8 9.7 0.00 0.00 0.00 95 1009.8
20260507105135 6 330 6.4 9.7 0.00 0.00 0.00 96 1009.3
20260507104637 6 336 4.8 4.8 0.00 0.00 0.00 99 1009.1
20260507104137 6 360 1.6 4.8 0.00 0.00 0.00 99 1009.1
20260507103637 5 348 9.7 14.5 0.00 0.00 0.00 99 1009.1
20260507103134 5 334 4.8 9.7 0.00 0.00 0.00 99 1009.1
20260507102639 5 15 8.0 14.5 0.00 0.00 0.00 99 1009.1
20260507102135 5 338 1.6 1.6 0.00 0.00 0.00 99 1008.9
20260507101634 5 350 3.2 4.8 0.00 0.00 0.00 99 1008.7
20260507101133 5 351 4.8 8.0 0.00 0.00 0.00 99 1009.1
20260507100632 5 347 3.2 3.2 0.00 0.00 0.00 99 1008.9
20260507100133 5 346 1.6 3.2 0.00 0.00 0.00 99 1009.1
20260507095633 5 341 1.6 1.6 0.00 0.00 0.00 99 1009.1
20260507095132 5 337 0.0 1.6 0.00 0.00 0.00 99 1009.1
20260507094631 5 336 0.0 1.6 0.00 0.00 0.00 99 1009.1
20260507094132 5 339 1.6 1.6 0.00 0.00 0.00 99 1009.4
20260507093633 5 336 0.0 1.6 0.00 0.00 0.00 99 1009.4
20260507093131 5 343 4.8 9.7 0.00 0.00 0.00 99 1009.1
20260507092630 5 348 3.2 3.2 0.00 0.00 0.00 99 1009.4
20260507092129 5 336 1.6 3.2 0.00 0.00 0.00 99 1009.3
20260507091630 5 0.0 0.0 0.00 0.00 0.00 99 1009.1
20260507091129 5 345 3.2 3.2 0.00 0.00 0.00 99 1009.4
20260507090628 5 349 1.6 1.6 0.00 0.00 0.00 99 1009.4
20260507085629 5 356 1.6 3.2 0.00 0.00 0.00 99 1009.4
20260507085130 5 325 4.8 4.8 0.00 0.00 0.00 99 1009.8
20260507084628 5 352 3.2 3.2 0.00 0.00 0.00 99 1009.8
20260507084126 5 338 1.6 3.2 0.00 0.00 0.00 99 1009.8
20260507083628 5 327 1.6 1.6 0.00 0.00 0.00 99 1009.8
20260507083127 5 0.0 0.0 0.00 0.00 0.00 99 1009.4
20260507082626 5 350 0.0 1.6 0.00 0.00 0.00 99 1009.1
20260507082226 5 0.0 0.0 0.00 0.00 0.00 99 1009.1
20260507081626 5 352 1.6 3.2 0.00 0.00 0.00 99 1009.1
20260507081126 5 348 1.6 1.6 0.00 0.00 0.00 99 1009.4
20260507080624 5 341 1.6 1.6 0.00 0.00 0.00 99 1009.4
20260507080126 5 341 1.6 1.6 0.00 0.00 0.00 99 1009.3
20260507075127 5 340 1.6 1.6 0.00 0.00 0.00 99 1009.4
20260507074723 5 332 1.6 1.6 0.00 0.00 0.00 99 1009.4
20260507074124 5 329 1.6 3.2 0.00 0.00 0.00 99 1009.4
20260507073624 5 343 1.6 1.6 0.00 0.00 0.00 99 1009.4
20260507063119 5 343 3.2 3.2 0.00 0.00 0.00 99 1008.7
20260507062658 5 335 3.2 3.2 0.00 0.00 0.00 99 1008.7
20260507052147 6 0.0 0.0 0.00 0.00 0.00 99 1009.8
20260507051645 6 352 1.6 1.6 0.00 0.00 0.00 99 1009.8
20260507051142 6 342 0.0 1.6 0.00 0.00 0.00 99 1009.8
20260507050643 6 0.0 0.0 0.00 0.00 0.00 99 1009.8
20260507050142 6 0.0 0.0 0.00 0.00 0.00 99 1009.6
20260507045641 6 343 0.0 1.6 0.00 0.00 0.00 99 1009.4
20260507045141 6 344 0.0 1.6 0.00 0.00 0.00 99 1009.8
20260507044642 6 0.0 0.0 0.00 0.00 0.00 99 1009.8
20260507044141 6 0.0 0.0 0.00 0.00 0.00 99 1009.1
20260507043640 6 341 0.0 1.6 0.00 0.00 0.00 99 1009.4
20260507043140 6 0.0 0.0 0.00 0.00 0.00 99 1009.4
20260507042641 6 334 1.6 1.6 0.00 0.00 0.00 99 1009.3
20260507041140 6 0.0 0.0 0.00 0.00 0.00 99 1009.6
20260507040638 6 150 3.2 8.0 0.00 0.00 0.00 99 1009.4
20260507040140 6 341 0.0 1.6 0.00 0.00 0.00 99 1009.8
20260507035638 6 0.0 0.0 0.00 0.00 1.78 99 1009.6
20260507035137 6 338 1.6 3.2 0.00 0.00 1.78 99 1009.4
20260507034636 6 338 3.2 3.2 0.00 0.00 1.78 99 1009.4
20260507034138 6 311 6.4 9.7 0.00 0.00 1.78 99 1009.8
20260507033637 6 343 3.2 3.2 0.00 0.00 1.78 99 1009.8
20260507033136 6 348 1.6 3.2 0.00 0.00 1.78 99 1009.4
20260507032635 6 327 1.6 1.6 0.00 0.00 1.78 99 1009.6
20260507032136 6 336 1.6 4.8 0.00 0.00 1.78 99 1009.4
20260507031635 6 318 1.6 3.2 0.00 0.00 1.78 99 1009.4
20260507031136 6 348 3.2 4.8 0.00 0.00 1.78 99 1009.6
20260507030635 7 336 1.6 3.2 0.00 0.00 1.78 99 1009.4
20260507030134 7 333 1.6 3.2 0.00 0.00 1.78 99 1009.8
20260507025633 7 341 1.6 3.2 0.00 0.00 1.78 99 1009.8